Wind_Speed
4 4 4 4 4 4 5 6 6 6 7 8 8 8 9 8 8 8 7 6 5 4 3 4 4 3 3 8 7 5 3 1 1 2 2 4 12 13 12 12 12 11 7 7 6 5 4 5 9 11 9 5 4 3 5 6 3 2 1 2 3 3 3 1 1 3 0 2 3 6 6 5 4 3 2 2 4 4 5 2 2 5 5 5 4 14 28 29
5 5 5 4 4 4 5 6 7 7 7 8 9 9 9 9 9 9 8 7 6 5 3 3 3 1 5 9 8 5 3 3 1 2 3 9 13 12 11 11 11 9 7 6 6 5 3 3 7 8 5 3 3 3 4 4 3 4 2 2 4 3 3 1 1 3 1 3 6 6 7 5 5 7 4 3 3 5 6 3 3 4 4 6 9 18 25 28
5 6 6 5 4 3 3 5 6 8 8 9 9 10 10 10 10 9 9 7 7 5 3 2 2 2 6 10 8 4 2 4 1 0 7 12 13 12 11 10 10 8 6 6 5 5 5 6 9 5 3 3 3 3 4 2 2 4 2 2 4 3 2 1 1 2 3 2 6 6 6 4 4 7 4 4 5 6 8 7 6 6 6 7 8 16 21 24
6 6 6 5 4 3 2 3 4 6 8 9 10 10 10 10 10 9 9 8 7 6 5 4 3 3 6 9 8 2 5 5 2 3 10 14 13 12 9 8 7 6 5 5 5 6 8 10 9 4 3 4 4 2 4 3 1 2 3 4 3 3 2 2 2 2 4 2 5 6 4 4 4 5 5 6 6 6 9 10 11 11 12 11 9 14 19 21
6 7 8 7 6 5 4 3 3 4 6 8 9 10 10 10 10 9 8 7 7 7 6 4 4 5 7 9 8 1 5 3 2 6 11 14 13 10 8 7 5 5 5 5 6 6 9 10 6 2 2 3 2 1 3 5 3 1 2 3 1 1 2 2 1 3 5 4 2 5 5 4 3 4 5 7 6 6 6 7 11 11 13 15 14 16 18 19
7 8 9 8 7 6 5 3 3 4 5 7 7 8 9 9 9 9 8 7 7 6 6 5 5 6 7 9 7 1 4 1 2 7 12 14 12 9 7 6 6 4 4 4 6 6 6 6 3 2 1 2 3 3 3 3 3 2 2 2 3 2 3 2 0 2 5 2 4 4 3 4 4 3 5 8 7 5 3 3 7 10 16 20 19 18 17 17
6 8 9 8 7 7 6 4 3 4 5 5 6 7 7 8 8 8 8 6 6 6 6 6 5 7 8 9 5 1 3 2 4 9 11 13 11 8 8 6 6 5 2 3 5 4 4 3 2 2 1 2 4 4 3 2 1 3 2 1 2 3 4 2 1 3 3 2 3 2 1 3 5 3 1 6 6 4 3 3 2 12 20 21 17 16 17 19
6 8 9 8 8 8 8 6 5 4 3 4 5 6 6 5 6 8 8 6 6 6 6 7 7 7 8 8 4 2 1 3 5 9 10 11 11 10 10 7 5 7 6 6 7 5 3 3 4 3 2 4 2 0 3 2 2 1 2 2 2 3 3 3 3 3 1 1 2 1 1 3 5 3 1 6 6 5 4 4 7 13 17 16 14 14 15 17
7 8 9 9 9 10 9 8 7 4 3 3 3 5 4 3 4 7 7 6 6 7 7 7 8 7 8 7 3 2 2 2 5 8 9 10 11 12 12 9 6 7 8 10 12 8 3 1 2 2 3 4 1 2 3 2 1 0 3 3 3 3 3 4 3 3 1 2 1 1 3 4 3 2 4 8 8 6 4 7 8 11 12 12 11 13 14 15
8 9 10 11 11 11 9 8 7 4 1 2 3 4 3 3 5 7 7 6 7 7 6 7 8 8 8 4 4 1 2 2 5 8 9 8 10 12 12 12 8 6 8 12 8 2 1 0 3 3 3 1 3 2 2 1 2 1 4 3 4 4 3 4 3 4 2 1 1 2 3 4 3 1 5 6 7 9 7 7 7 9 11 11 10 11 15 16
8 10 10 11 11 10 9 8 5 2 2 3 4 5 4 5 6 7 7 7 7 6 6 6 6 7 6 3 2 2 1 4 5 9 11 8 8 10 10 11 9 8 9 9 5 4 2 3 3 2 1 1 3 3 2 2 2 3 5 3 0 3 2 3 4 4 2 0 4 3 2 4 1 2 7 4 7 9 9 8 6 8 8 9 10 10 12 16
8 10 10 10 10 10 9 8 6 5 5 6 6 7 7 8 8 7 7 7 6 6 6 5 6 6 3 3 2 2 3 4 6 9 11 8 7 6 7 9 9 8 8 5 4 6 4 5 3 2 0 1 2 2 1 1 2 4 4 2 3 1 2 5 4 4 3 1 5 3 3 4 3 7 9 5 8 7 8 8 7 8 7 7 9 9 10 14
8 9 9 9 9 9 10 10 10 11 11 10 10 10 10 9 8 7 7 7 7 7 7 6 4 3 2 2 1 2 3 3 5 9 10 6 6 3 4 7 8 7 7 5 4 5 5 5 3 5 2 4 2 1 1 0 3 2 1 1 2 4 4 7 5 4 4 2 4 3 3 6 7 11 6 6 9 7 7 8 7 7 7 6 7 7 8 13
7 8 8 8 8 8 9 9 11 13 13 13 12 11 10 9 8 7 6 7 8 8 7 3 1 2 3 1 1 4 5 3 4 9 9 7 6 3 1 4 5 5 5 4 3 4 5 2 7 6 3 4 3 1 2 3 2 1 1 0 0 1 5 5 3 5 3 2 2 3 2 6 8 9 4 6 8 9 8 9 8 8 7 7 7 8 9 12
6 6 7 6 6 7 8 10 12 14 14 14 13 12 10 8 7 6 6 7 8 8 5 3 3 2 3 1 2 3 5 5 6 9 8 8 9 5 5 6 6 5 3 3 2 3 4 3 6 4 1 2 3 3 3 3 2 1 1 3 2 2 4 6 2 6 4 3 1 4 2 6 9 8 5 7 7 9 9 9 9 9 9 9 8 9 9 10
5 5 5 5 5 7 9 12 14 14 14 14 14 14 12 10 8 6 6 7 7 7 4 4 5 3 3 1 2 1 3 5 7 9 6 7 10 8 9 10 8 6 5 3 1 2 2 5 3 2 3 2 3 4 4 4 4 2 2 3 4 1 3 4 4 5 6 1 1 4 3 5 6 6 6 7 8 9 8 9 10 10 10 10 9 9 9 9
3 4 4 5 5 7 10 12 12 11 12 14 15 14 12 11 9 7 5 5 6 5 5 6 8 1 3 1 1 0 3 5 6 7 5 7 10 8 7 6 6 6 4 4 3 3 1 3 1 1 2 2 1 4 4 3 4 4 1 2 4 3 3 2 4 4 5 4 3 4 4 8 9 6 6 8 9 9 9 11 11 11 10 10 9 9 9 10
2 3 4 4 5 8 10 10 9 8 11 12 13 12 12 13 11 8 5 3 4 2 3 5 6 2 1 2 1 4 7 7 7 7 8 9 8 6 6 4 5 8 6 2 2 1 1 2 2 2 3 4 3 5 2 3 3 2 2 2 3 4 3 4 4 3 2 3 5 4 6 12 14 9 8 9 10 11 13 12 10 11 11 10 10 10 10 11
2 2 3 4 6 8 10 8 6 7 9 10 10 9 9 10 9 8 8 5 2 1 1 3 2 2 2 2 2 8 9 7 5 6 10 12 8 6 6 5 4 4 3 2 3 1 1 3 3 2 1 2 2 4 6 6 6 6 5 3 4 5 5 5 4 2 1 1 7 7 8 13 13 12 10 9 10 12 14 11 8 9 9 10 10 10 11 12
2 2 3 5 5 7 8 7 6 7 9 8 5 3 2 3 3 4 6 6 2 1 3 3 1 2 1 2 4 9 7 3 1 5 14 15 9 5 3 2 1 2 1 2 2 2 4 4 1 3 4 4 3 3 4 3 3 4 2 2 4 4 5 5 3 3 1 1 7 8 9 13 13 14 13 8 9 11 13 12 10 10 9 10 11 11 13 14
2 1 2 5 6 6 8 9 8 8 7 3 1 1 1 0 1 1 2 3 2 2 1 4 2 2 0 3 4 7 3 2 1 7 18 14 3 2 3 1 1 1 3 4 1 3 5 3 4 6 6 5 5 4 2 2 1 1 1 3 5 3 5 5 3 4 1 1 6 5 6 14 14 14 14 8 8 12 13 13 13 13 11 10 11 13 13 13
3 1 2 5 6 6 9 11 10 7 2 1 2 1 1 1 2 4 2 1 3 3 3 4 1 1 2 1 2 5 2 1 4 8 18 15 3 1 3 3 2 3 2 2 2 5 4 2 7 5 3 3 5 4 1 1 1 2 1 1 4 3 4 4 2 2 1 1 6 5 6 14 16 15 16 11 10 12 12 14 15 13 12 11 11 13 13 12
3 2 2 5 7 7 11 12 8 4 0 3 4 4 1 2 4 5 3 2 2 2 2 3 2 1 3 2 4 6 3 2 3 5 14 13 4 1 1 3 2 1 3 5 3 1 1 4 5 2 2 2 3 3 1 4 3 2 2 1 4 3 1 3 4 4 2 4 6 8 7 11 15 13 13 11 9 10 11 12 12 11 11 13 14 13 12 13
3 3 4 6 8 9 12 11 6 3 1 4 5 3 2 5 4 2 1 2 1 2 1 1 0 1 1 2 5 5 2 1 1 4 10 7 1 2 2 1 3 3 3 3 5 3 3 5 0 3 3 1 2 4 4 4 4 4 3 4 4 3 1 5 5 6 5 4 4 5 6 7 8 7 9 8 4 7 8 8 9 10 11 12 11 11 11 12
3 3 5 8 9 12 13 8 4 2 2 3 3 3 5 4 3 2 1 2 2 3 2 2 0 0 1 1 3 1 1 1 0 3 5 4 1 2 1 0 2 2 3 2 6 2 4 4 2 2 4 2 2 2 1 3 2 5 2 4 3 1 3 4 5 6 5 6 3 3 5 6 6 6 9 9 5 6 5 7 10 10 10 9 8 9 10 10
3 3 6 9 10 14 13 4 3 3 2 4 2 2 4 2 3 4 4 3 3 3 1 1 1 1 1 1 1 1 2 2 3 2 3 3 1 1 1 2 1 1 1 2 3 1 3 1 2 1 1 3 3 2 3 4 4 3 3 4 3 1 2 4 5 4 1 5 4 2 1 5 7 8 10 9 8 9 7 7 10 9 8 8 9 10 9 9
3 2 6 11 12 15 11 1 2 4 2 3 3 5 5 0 3 3 4 4 3 1 1 1 1 1 1 1 0 3 1 3 2 2 1 1 1 1 2 2 2 1 1 3 1 2 1 0 1 1 1 2 1 3 4 5 6 3 4 3 1 2 3 3 2 0 2 5 5 2 4 3 6 8 9 7 7 10 8 8 9 8 8 9 9 10 9 10
4 1 6 12 13 15 9 2 3 4 3 3 2 7 6 3 3 2 5 3 2 1 1 1 1 0 1 2 3 3 1 2 2 3 2 1 2 2 2 1 2 2 1 5 1 4 1 2 3 3 2 1 3 4 4 5 3 5 3 2 2 3 4 1 1 2 2 3 5 2 4 2 6 8 6 4 5 8 9 10 10 9 9 9 10 10 10 10
4 1 7 11 14 16 9 3 3 2 3 3 2 7 5 4 3 4 5 1 1 1 1 1 1 1 3 4 4 2 1 1 1 3 2 2 1 3 2 2 4 3 1 5 4 5 1 3 5 5 4 4 5 4 3 4 2 4 2 1 2 2 3 2 2 1 2 2 5 5 3 2 5 7 5 2 3 7 8 9 9 9 9 9 10 10 10 9
4 3 6 11 14 15 8 3 4 2 2 3 4 7 2 4 3 6 3 1 1 0 0 1 0 2 4 4 4 3 1 1 2 2 2 1 1 3 2 1 4 4 1 2 2 4 2 1 2 3 3 5 4 2 1 3 2 2 3 3 4 2 1 2 2 2 3 2 6 6 6 4 3 7 5 3 5 7 6 7 7 7 8 9 9 9 9 9
4 5 6 10 12 13 7 4 7 6 3 4 7 5 2 4 4 5 0 3 1 1 1 1 2 2 4 3 2 3 2 2 3 3 3 2 3 4 3 1 3 4 3 4 3 4 3 1 2 2 2 3 5 1 1 1 1 2 4 4 4 4 3 4 3 4 2 4 7 4 3 5 3 7 7 6 6 6 6 6 7 9 9 9 9 8 8 8
5 5 7 7 7 9 8 3 5 6 4 6 7 3 4 4 3 1 3 2 1 1 1 1 2 1 3 2 1 2 2 3 2 2 0 1 1 2 0 3 1 3 4 3 3 4 2 3 3 1 1 3 5 1 3 4 4 4 3 4 3 3 4 3 3 1 2 5 5 1 4 2 6 10 12 12 11 10 9 8 9 11 10 9 8 8 8 7
4 4 5 4 2 6 10 4 3 4 7 9 5 4 6 4 1 3 3 2 0 1 0 0 2 0 2 2 2 2 1 2 1 1 1 0 1 3 2 3 4 3 2 3 2 4 3 4 2 1 3 3 6 3 1 2 2 3 2 3 3 1 2 3 4 2 3 4 4 1 3 2 6 8 13 15 15 14 11 10 11 11 10 9 9 7 7 7
7 4 2 3 1 4 8 6 3 6 10 8 4 6 6 2 3 2 2 3 2 1 1 0 2 2 1 1 2 1 1 2 2 1 1 1 1 2 3 3 3 4 1 0 1 1 1 5 3 4 2 3 6 5 5 3 3 4 4 4 4 3 3 3 3 3 4 3 4 2 1 3 4 5 8 10 11 10 9 9 9 9 9 8 6 6 6 7
9 7 4 2 1 2 5 4 4 9 10 6 5 5 4 3 4 1 2 3 1 2 2 1 2 3 3 2 2 0 0 2 1 1 0 2 2 4 3 3 4 4 4 2 2 1 2 5 4 1 1 5 5 4 4 5 0 3 2 4 2 4 5 3 4 5 3 2 3 2 3 5 5 8 11 9 10 9 8 8 6 8 8 5 5 6 6 6
5 5 6 6 4 1 2 5 9 10 7 5 5 3 3 4 2 2 2 2 1 1 1 3 2 1 4 3 2 2 1 1 1 2 1 3 4 4 4 3 5 5 5 4 2 1 1 5 3 1 1 4 4 2 2 2 1 0 1 2 5 5 5 1 4 2 2 1 4 3 4 5 5 10 11 6 7 7 6 6 7 8 7 5 6 7 6 7
4 2 2 4 4 3 3 7 10 6 4 6 4 2 4 3 2 3 1 0 1 2 3 2 1 1 2 2 3 3 1 2 1 1 2 3 3 4 4 3 3 5 5 4 2 3 2 4 5 2 2 4 3 2 2 3 3 4 3 5 4 1 3 2 1 4 3 3 5 4 7 6 3 6 7 5 5 7 5 6 8 8 6 6 7 7 7 7
5 1 0 2 3 3 4 7 7 3 5 6 1 3 2 1 2 2 1 1 1 2 3 1 2 2 1 1 3 3 1 1 1 0 2 3 3 3 5 3 2 3 4 4 1 2 3 2 6 1 2 4 2 2 4 4 2 4 3 3 0 2 1 1 2 2 2 4 5 5 7 6 5 6 6 8 10 8 7 7 7 9 8 7 7 7 8 6
5 2 1 1 3 3 5 7 4 4 6 4 2 3 1 1 1 2 1 1 1 2 2 3 2 0 2 3 3 3 3 3 2 1 1 2 3 3 5 4 2 3 3 5 2 2 3 1 4 2 1 2 2 1 3 2 1 2 2 3 0 3 3 2 3 3 3 3 5 4 3 5 8 7 7 12 13 8 7 8 7 10 10 8 7 7 7 6
2 1 1 2 2 3 6 5 3 5 4 1 3 2 1 1 2 2 2 1 1 1 2 3 1 1 3 4 3 2 2 4 4 2 2 3 3 4 4 4 4 4 2 3 1 1 2 2 4 4 3 1 2 4 7 6 4 3 1 2 2 2 1 1 2 3 4 3 3 3 7 8 7 6 9 14 12 7 8 8 8 9 9 7 7 6 7 6
0 2 2 2 2 2 4 4 3 3 2 2 2 1 1 1 1 1 1 1 1 1 2 2 3 3 3 3 2 2 2 3 4 3 3 4 3 4 4 6 7 7 4 3 1 2 2 3 3 3 3 4 7 7 8 8 8 7 6 6 6 5 3 1 5 3 3 4 4 3 11 11 5 6 9 11 9 7 8 8 7 8 8 8 7 7 8 6
3 2 2 2 1 1 4 3 1 1 2 2 2 1 1 1 1 2 1 1 0 1 1 1 3 4 3 3 3 2 2 2 4 4 4 5 6 5 4 7 9 8 6 3 4 4 3 3 2 5 6 8 9 5 4 5 5 5 5 5 6 6 6 5 5 4 2 3 2 3 7 11 3 8 9 8 8 8 8 8 7 7 8 7 7 7 5 5
2 2 2 1 3 2 5 2 3 1 1 2 1 0 1 1 1 2 1 1 1 2 0 1 4 3 3 3 2 2 3 3 5 6 4 5 5 5 5 9 10 7 5 2 3 2 2 2 2 5 7 6 5 2 1 1 3 3 5 5 6 6 7 7 5 3 2 3 3 2 7 9 3 3 6 6 7 7 7 7 7 6 6 5 6 6 5 6
2 2 1 2 2 2 4 2 2 2 3 2 2 2 2 1 3 4 3 3 3 3 2 3 4 3 2 2 1 3 4 3 4 6 4 4 4 2 2 8 10 6 4 3 3 3 3 2 2 2 7 7 6 4 4 2 2 4 4 5 7 7 6 3 1 1 2 6 9 7 9 11 4 3 3 1 1 3 5 4 2 4 5 5 5 6 6 6
2 1 2 1 2 4 2 4 5 2 2 1 2 4 2 2 3 5 5 4 4 4 3 3 2 1 1 1 0 4 5 3 3 3 2 3 4 3 2 6 8 6 3 3 2 3 3 3 4 3 6 8 8 7 5 2 3 3 3 6 9 10 10 5 1 3 5 10 10 7 9 16 11 1 6 6 5 5 7 6 5 3 4 5 5 6 6 6
2 1 2 3 4 4 0 1 5 3 2 1 2 4 2 2 3 2 4 3 3 4 3 2 0 1 0 1 2 5 6 5 4 3 3 4 4 3 3 4 5 4 2 1 1 2 1 3 5 8 11 11 13 13 3 4 3 4 4 6 8 9 11 8 3 5 7 6 8 11 13 18 21 11 6 8 6 6 7 6 6 6 5 6 6 6 6 6
2 1 1 1 3 2 2 3 2 2 2 3 2 3 3 3 4 1 2 3 2 1 2 2 2 3 3 3 3 5 4 3 4 5 7 8 5 3 3 2 3 3 3 2 2 3 1 5 7 11 16 18 18 17 7 1 4 7 5 6 7 7 9 10 11 13 7 1 10 21 16 15 18 15 10 7 3 4 7 7 8 8 7 7 6 5 6 6
1 1 2 2 1 1 1 2 1 2 2 2 2 2 2 2 2 2 2 2 1 1 2 2 4 9 8 6 4 3 3 1 4 5 6 6 3 2 3 2 4 4 5 2 2 4 3 6 6 9 17 22 19 17 13 9 10 11 10 10 10 10 12 14 18 20 11 6 16 25 20 18 17 13 12 8 5 6 10 9 8 7 6 6 6 6 7 7
1 1 1 1 0 3 3 1 1 2 3 2 2 2 3 3 5 5 2 1 2 3 4 3 7 10 9 6 5 4 3 3 6 7 3 3 4 1 2 4 3 2 4 3 2 2 3 5 5 7 12 20 17 13 14 12 12 15 16 13 13 17 18 16 18 21 17 15 21 24 23 25 19 11 12 11 9 9 9 7 6 6 7 7 7 7 8 8
1 1 1 3 2 1 1 1 3 2 2 2 2 4 3 4 6 5 1 4 3 3 4 6 10 7 8 8 7 8 10 9 10 11 4 3 4 3 3 4 2 2 2 4 2 2 3 3 2 4 5 16 13 7 10 11 12 16 16 11 14 18 17 17 19 19 15 15 20 21 20 20 14 9 8 9 8 8 8 8 8 8 8 7 8 9 9 9
2 2 3 3 1 1 1 0 3 3 1 1 3 4 3 4 6 4 3 6 8 5 6 9 10 4 4 7 10 14 16 11 12 13 6 5 7 5 4 4 5 5 4 5 3 3 5 3 2 3 3 12 7 0 5 7 8 14 14 13 17 16 13 15 14 10 10 13 15 14 11 10 8 8 8 8 9 10 9 9 8 8 9 8 9 10 10 10
2 1 2 4 1 2 2 1 1 1 2 3 5 5 4 6 6 1 3 5 5 5 6 9 6 3 3 7 10 13 12 9 10 11 6 7 8 7 6 6 6 8 7 6 4 3 5 3 1 3 4 11 5 4 7 9 9 12 10 10 14 13 12 14 9 5 5 7 7 7 5 4 6 9 10 10 11 10 9 9 9 9 9 9 8 9 10 10
Wind_Direction
349 340 325 307 290 272 267 263 261 258 255 258 254 249 245 248 255 259 267 270 276 287 303 324 351 34 143 165 150 152 201 255 0 36 82 339 333 334 326 319 317 310 294 272 249 248 259 217 229 229 221 219 209 216 200 200 173 128 135 191 250 246 227 199 219 286 250 187 176 183 193 161 163 163 153 137 91 102 148 171 81 68 60 76 95 145 156 164
354 348 336 322 297 272 257 252 253 252 250 253 252 252 251 248 248 251 257 259 262 266 284 313 337 29 161 175 180 182 221 296 320 113 34 342 333 331 323 318 310 302 290 267 240 245 265 245 243 223 205 211 210 203 184 195 174 166 167 186 233 215 191 179 233 276 326 197 183 192 207 197 180 164 161 163 143 139 154 193 157 107 82 95 113 137 152 160
0 355 347 336 318 297 267 253 246 243 241 241 241 243 246 246 245 243 244 249 254 252 253 267 275 220 178 183 191 192 319 334 329 296 349 344 336 330 327 320 303 290 273 252 245 259 270 290 287 254 202 230 240 213 196 220 199 185 174 217 237 179 164 327 340 283 305 225 173 193 209 207 190 154 159 173 157 175 189 188 174 186 176 143 139 145 154 160
1 359 356 356 357 353 322 278 250 240 236 234 233 234 234 240 243 240 236 237 243 240 233 228 224 207 186 188 188 176 359 9 16 317 338 343 338 334 331 323 307 283 263 245 245 266 276 289 290 258 198 233 258 210 196 213 198 187 174 200 226 151 157 280 327 316 309 301 181 186 166 170 184 152 166 155 148 218 221 197 188 194 178 159 161 159 162 165
0 1 4 5 6 4 355 332 280 250 238 234 231 231 230 232 238 242 236 230 232 231 228 220 208 201 193 191 188 139 24 34 316 324 341 343 339 338 339 336 325 281 265 251 250 264 269 268 273 268 206 232 270 224 218 208 165 91 166 150 120 133 164 226 320 345 310 311 156 159 161 161 149 154 186 172 177 229 222 203 202 192 170 163 165 165 169 172
1 4 6 5 1 356 350 331 296 269 255 245 234 231 229 227 228 235 237 228 223 221 223 218 203 196 197 194 193 20 48 128 297 344 343 343 343 347 358 352 351 321 267 258 267 277 272 252 238 277 253 253 261 235 249 235 163 188 211 112 40 61 136 184 22 314 314 336 140 156 181 143 140 192 210 205 218 223 205 242 222 188 164 162 163 165 173 178
1 5 7 5 0 351 346 334 303 279 268 259 242 232 227 225 218 220 227 224 216 211 210 208 199 195 196 195 200 25 71 213 327 353 340 350 357 358 8 354 357 354 292 278 280 274 287 270 221 239 260 281 260 243 277 321 137 176 190 122 53 87 127 156 187 269 344 80 179 182 164 150 183 216 261 229 223 188 214 332 161 158 153 156 160 170 179 182
3 6 6 6 3 356 353 344 328 312 291 270 241 221 215 210 200 204 209 210 205 200 200 197 197 191 186 185 181 32 25 256 335 350 343 1 12 11 9 359 357 343 315 295 278 259 278 279 241 229 255 263 240 268 318 0 39 93 145 165 135 104 141 167 189 255 355 152 201 99 188 206 191 180 315 241 204 178 196 66 101 132 143 156 165 175 181 184
4 5 7 7 5 4 359 349 338 326 311 278 234 207 198 180 175 182 186 191 190 192 193 190 194 185 180 174 121 42 273 280 349 349 349 0 9 13 11 10 1 335 320 303 285 263 256 285 259 255 257 260 121 64 347 19 327 179 151 160 143 140 169 172 190 222 230 255 153 105 253 245 202 189 267 238 190 175 155 108 119 132 146 165 170 178 182 185
3 6 9 8 8 7 359 351 339 322 299 228 206 186 180 161 154 159 167 173 178 184 184 187 194 180 177 160 75 38 276 2 357 355 355 352 1 7 11 15 6 347 329 316 310 287 213 261 287 286 263 262 82 41 12 124 199 126 124 123 135 167 187 178 197 213 216 284 170 166 262 255 260 221 258 246 172 157 141 137 149 147 162 174 174 183 184 188
5 10 11 9 12 11 5 3 359 354 168 169 161 158 157 147 141 145 156 166 174 176 178 186 184 171 167 118 85 222 306 12 8 359 348 343 355 359 8 10 4 358 342 333 2 29 358 288 305 324 270 107 62 9 10 154 146 105 110 70 109 187 226 209 196 211 192 269 205 174 274 266 331 223 240 226 153 156 151 163 173 166 179 178 178 185 186 193
7 13 11 10 15 20 26 34 51 82 119 131 133 138 135 135 136 141 153 162 166 162 160 154 151 164 143 73 157 239 330 18 29 355 337 340 345 351 11 5 5 7 356 5 10 3 354 316 343 71 315 119 88 5 315 221 107 118 111 38 299 309 288 237 195 200 183 205 214 161 335 280 208 231 240 167 148 155 151 170 186 187 194 186 185 187 190 195
8 15 14 14 19 29 42 54 73 88 102 111 117 121 123 128 132 143 154 157 157 153 151 136 134 166 104 76 234 5 6 43 32 346 338 342 328 348 23 1 7 12 7 21 0 0 1 336 87 117 59 88 138 242 120 25 85 127 142 129 289 356 305 236 180 181 179 209 217 158 316 277 239 245 240 148 154 147 159 189 194 197 202 200 197 192 196 195
9 18 22 23 26 38 50 64 81 90 98 104 109 114 118 124 130 144 153 156 160 158 156 134 84 153 102 160 262 43 45 45 6 341 347 350 339 349 355 347 355 357 11 16 350 359 351 10 94 94 40 84 144 153 60 19 62 102 306 352 248 350 293 268 165 156 164 241 197 118 254 264 272 266 210 165 168 157 183 204 196 201 203 204 207 201 204 201
12 24 31 34 37 51 66 83 92 95 99 101 103 104 106 111 119 133 146 162 164 169 186 296 295 161 84 338 232 67 42 29 1 349 355 355 352 339 311 324 322 315 333 346 338 346 349 60 83 76 31 32 75 86 48 354 352 43 28 321 313 193 268 299 226 169 166 262 183 120 238 263 273 262 195 178 180 175 196 207 201 206 204 204 209 208 210 209
16 34 42 54 63 73 88 100 101 99 98 96 95 94 94 96 98 108 138 167 169 186 217 312 299 194 99 357 205 116 31 20 4 357 2 350 339 318 310 313 304 288 266 276 294 297 2 66 70 117 117 25 81 98 49 10 333 349 125 252 285 272 286 304 280 213 167 164 249 187 231 271 269 247 197 188 189 191 208 217 211 208 208 206 207 210 211 211
23 42 60 76 89 98 108 111 107 100 97 97 96 93 90 89 86 91 112 154 169 204 233 305 313 302 100 38 135 141 329 335 345 351 351 336 321 308 313 311 309 313 276 253 257 260 338 59 57 138 90 32 102 97 52 354 307 323 21 258 266 272 284 281 292 273 165 145 250 230 231 254 260 248 214 207 195 197 217 222 217 212 211 209 207 210 210 208
37 61 82 97 111 119 123 119 107 99 101 104 101 96 95 89 80 79 89 143 178 231 269 306 335 37 32 332 291 300 309 306 314 331 335 333 320 304 308 289 300 332 340 301 268 222 15 28 62 50 22 10 28 85 121 237 207 216 272 295 293 291 282 257 255 270 162 179 246 252 256 258 263 260 234 221 202 203 221 222 218 217 212 211 210 209 210 210
64 84 105 121 127 134 138 128 108 104 111 111 106 104 105 94 77 70 68 79 105 57 279 296 12 129 248 288 307 314 310 295 300 332 345 347 334 306 295 273 272 324 359 9 325 278 93 32 44 58 339 325 2 122 171 209 182 189 219 213 259 280 286 266 247 257 143 213 253 241 251 264 269 269 251 230 211 212 228 228 223 223 218 213 212 212 213 213
48 84 129 143 143 149 150 139 124 123 120 114 105 87 87 67 43 33 37 54 89 152 176 235 285 127 266 294 322 333 322 266 237 2 359 350 328 317 318 260 266 351 266 189 290 303 87 69 49 195 213 229 250 207 194 226 201 202 225 247 256 259 279 272 248 270 111 143 258 235 248 268 271 273 266 239 218 224 231 233 230 223 220 216 213 216 214 217
8 60 140 160 163 162 158 153 142 134 128 122 36 34 125 55 8 265 0 15 304 329 168 236 229 122 262 266 314 354 359 240 274 5 2 353 326 347 349 356 85 334 262 195 185 358 68 96 230 216 217 232 251 248 233 279 304 259 244 291 295 262 260 262 219 247 201 149 268 258 273 279 276 276 274 248 220 233 228 225 231 223 219 220 215 219 219 222
344 344 171 176 176 172 164 157 149 145 140 330 321 349 174 192 173 177 138 80 290 338 356 308 350 128 295 280 339 359 62 18 326 350 359 358 25 53 329 26 95 209 288 43 45 11 34 229 234 223 241 284 274 252 223 286 318 332 295 305 302 275 273 295 290 263 199 182 277 298 296 284 283 280 279 263 230 240 230 217 226 219 214 220 218 220 221 223
320 280 226 195 183 173 167 161 161 172 189 347 326 314 295 139 150 168 121 92 270 318 3 353 33 15 334 2 354 0 74 66 306 319 353 0 16 35 36 37 26 237 11 41 94 60 358 249 235 243 323 348 295 275 26 16 354 296 264 234 265 284 337 288 300 314 262 221 262 295 300 284 286 287 286 272 231 240 241 222 226 218 211 217 217 218 217 216
306 272 230 201 186 176 170 170 181 191 329 341 338 335 116 110 113 155 115 76 286 288 301 284 135 66 331 323 348 6 79 79 258 303 350 11 358 348 95 74 24 29 354 45 115 140 237 242 223 10 320 315 335 329 40 49 348 294 235 212 241 289 284 236 283 325 310 287 273 299 314 288 283 287 290 293 250 244 246 224 230 227 219 223 223 224 221 216
306 269 223 196 187 181 176 182 214 214 301 315 351 60 119 108 48 31 56 51 333 298 327 320 288 117 244 306 342 7 126 23 223 284 348 31 21 352 100 202 61 60 305 42 93 116 253 245 85 29 317 7 47 334 81 116 348 316 254 197 201 252 290 282 327 356 352 326 316 23 352 294 287 286 273 290 302 279 259 217 229 233 226 228 230 230 225 221
315 264 213 192 186 181 178 195 249 223 270 281 299 116 138 115 24 35 65 51 324 287 341 356 156 344 299 343 335 144 77 316 257 284 0 43 56 101 82 329 60 152 257 75 89 208 254 269 80 103 334 25 40 291 245 143 100 307 244 181 156 82 321 318 347 22 5 286 273 73 17 272 297 291 266 279 293 287 282 237 234 237 227 222 224 228 223 221
337 274 199 189 184 178 177 194 218 193 218 268 265 185 173 1 4 28 57 43 323 254 123 201 155 46 256 258 320 122 98 291 297 334 334 64 350 85 86 345 36 259 224 82 17 279 173 66 11 39 60 44 9 269 240 132 114 254 237 153 76 334 291 290 9 83 233 282 292 198 175 245 294 277 263 280 289 287 282 257 247 243 233 226 226 229 223 219
353 321 186 186 183 177 174 161 181 191 209 250 256 189 186 347 353 50 74 67 311 135 111 267 179 91 283 342 34 115 188 308 37 296 274 70 358 47 67 237 149 216 249 96 224 270 144 174 225 188 124 183 221 226 197 129 133 246 233 197 245 235 227 216 54 261 272 340 314 255 158 200 272 271 292 307 276 276 267 249 247 246 239 233 231 232 226 223
9 71 177 182 180 177 172 155 177 213 231 244 238 188 195 352 14 62 74 111 309 64 98 1 140 291 337 6 13 66 12 20 131 253 293 61 357 59 77 220 136 140 311 111 177 248 210 194 204 160 159 218 220 219 166 129 201 249 241 291 279 205 198 158 145 252 17 10 274 258 173 192 273 277 299 322 245 252 254 248 246 246 244 237 233 233 229 227
47 103 164 173 176 180 182 211 239 280 288 234 198 184 203 0 55 62 44 239 278 334 241 66 261 316 22 28 337 334 38 305 277 310 353 34 343 29 74 203 96 100 342 41 174 244 256 221 199 154 188 199 173 189 146 138 231 287 24 4 342 350 112 112 130 94 46 296 261 248 197 181 293 281 254 221 221 217 227 254 257 254 256 247 239 234 228 226
83 111 143 160 175 185 189 237 251 262 284 212 183 164 54 17 66 86 156 241 255 328 336 351 304 356 39 51 308 322 16 304 317 23 2 345 7 9 37 46 38 55 1 347 323 290 329 343 244 233 234 133 112 56 341 32 338 25 48 37 352 339 37 33 10 57 79 258 268 267 176 158 231 269 252 238 248 225 201 219 238 249 257 250 242 235 225 222
96 124 137 146 172 190 192 230 256 246 233 183 163 109 65 42 30 162 229 306 355 284 301 289 284 3 34 27 287 286 341 307 322 75 177 328 25 314 135 167 174 32 344 297 312 320 298 242 240 305 284 141 117 39 328 352 29 65 62 62 36 340 4 359 324 7 205 243 266 337 85 158 234 256 260 259 266 256 225 219 237 249 255 250 240 232 221 215
88 131 146 146 164 196 199 233 286 217 183 161 137 57 74 82 310 227 245 325 303 254 94 176 288 92 74 2 299 273 302 265 270 73 214 171 8 287 259 200 166 105 283 248 333 339 322 304 274 173 287 183 145 154 254 310 82 122 148 117 118 64 8 295 274 281 263 254 263 94 97 268 276 268 253 248 253 251 238 233 238 240 239 233 226 219 213 206
69 86 149 185 206 202 206 239 266 169 158 144 97 50 74 123 243 227 270 262 233 319 34 100 334 0 96 224 247 258 357 268 216 87 330 26 13 281 274 265 171 119 127 212 338 239 273 307 241 184 245 172 169 187 170 146 147 191 194 141 147 158 160 229 235 229 254 275 283 301 148 221 250 268 241 231 245 250 246 244 240 235 227 215 209 202 193 199
66 65 63 74 91 201 208 221 183 153 146 121 68 68 109 214 248 238 257 252 263 345 318 347 43 14 310 260 248 261 75 268 270 51 268 176 193 217 208 226 197 145 123 149 270 187 194 265 245 196 212 156 181 230 146 117 121 245 178 109 174 191 163 194 219 207 215 308 289 274 243 217 228 277 275 264 262 261 261 257 244 240 233 197 191 205 200 207
53 48 46 46 47 67 183 176 156 145 135 90 66 94 188 224 230 173 202 235 203 175 323 346 57 53 303 299 315 329 12 251 291 4 275 210 216 214 190 204 196 167 146 155 211 191 194 271 268 11 292 181 181 220 157 154 211 211 133 188 224 189 135 144 266 285 61 300 258 208 238 277 306 290 289 295 276 279 288 262 237 241 246 221 214 223 223 222
22 31 26 23 36 64 144 157 148 139 94 82 93 196 221 227 187 177 194 189 187 136 83 357 311 179 283 299 290 291 341 301 293 6 274 254 250 201 177 212 202 179 175 153 197 199 153 279 266 176 236 249 185 151 278 246 167 136 196 238 250 152 89 92 261 330 7 264 261 206 219 260 298 277 306 344 292 287 299 266 253 263 262 240 236 239 237 231
6 48 337 355 36 76 136 147 144 120 69 76 108 240 227 212 184 174 167 138 139 85 96 209 233 195 206 264 271 251 206 282 286 242 253 256 257 183 154 188 205 181 180 126 115 220 125 286 284 189 189 278 19 67 294 281 166 150 202 246 202 157 231 81 147 265 268 256 281 255 227 227 216 234 281 286 265 263 276 277 270 263 248 235 243 252 253 254
341 31 325 307 33 67 138 152 134 77 64 75 242 255 219 236 242 182 167 168 118 100 155 229 238 217 208 202 230 234 198 208 219 242 241 218 248 212 163 175 176 171 160 119 151 221 119 155 277 306 242 281 20 77 237 259 59 65 351 323 291 168 185 183 174 185 187 238 283 286 255 223 216 217 232 254 256 242 251 271 260 244 238 231 233 241 251 252
289 76 293 258 39 75 144 145 78 66 72 164 208 221 221 247 260 223 190 190 180 162 199 231 219 224 239 225 235 245 213 210 200 205 238 226 255 253 199 161 148 163 121 71 132 230 109 164 244 293 319 278 214 207 198 183 156 138 183 252 224 185 174 214 226 174 149 199 249 280 277 248 208 204 224 243 256 243 232 246 244 240 241 239 236 234 238 237
172 73 289 251 59 88 131 95 45 88 118 235 224 221 233 192 209 251 253 161 192 216 186 194 203 209 226 237 250 231 210 230 207 203 246 235 234 255 210 150 147 155 116 60 265 225 168 176 216 268 283 231 228 219 194 184 174 167 184 200 191 174 143 193 268 242 147 190 197 213 278 270 186 176 227 236 242 239 226 221 229 244 246 245 243 230 225 227
60 81 276 228 151 90 91 71 346 118 141 248 246 190 172 148 168 223 255 46 176 220 130 210 216 209 216 222 219 199 196 248 210 197 239 233 215 231 203 149 146 147 130 148 227 217 160 135 216 255 248 241 246 236 189 184 171 171 197 196 171 155 149 168 230 243 192 230 202 140 274 280 194 171 212 226 225 235 237 226 230 250 248 240 248 250 249 252
92 159 287 146 173 100 77 61 312 338 234 252 284 269 175 148 164 203 228 221 202 188 156 259 217 206 231 221 191 186 201 221 208 199 231 246 232 236 191 150 143 137 124 155 222 216 158 135 226 269 279 279 284 317 37 73 124 196 230 187 165 182 188 182 191 189 173 218 207 193 262 278 285 185 208 215 225 248 257 235 225 245 262 266 274 287 291 282
140 186 347 92 150 90 87 156 236 280 268 294 347 301 270 216 188 182 202 221 201 159 176 237 221 209 235 193 158 216 213 221 234 222 224 231 237 279 200 162 159 161 174 191 195 193 205 186 158 294 306 310 326 349 336 319 173 216 232 184 186 200 179 164 206 160 215 228 213 223 261 266 264 55 34 14 209 272 282 275 247 256 286 302 296 293 285 277
88 27 338 9 77 84 127 179 154 171 252 340 310 275 266 279 217 175 180 218 206 174 189 250 239 186 214 117 177 246 227 215 242 252 249 238 253 303 275 195 183 188 211 205 187 185 205 195 151 196 266 276 285 290 284 248 201 226 231 190 194 191 174 178 213 173 225 244 228 215 249 261 259 7 24 354 7 350 316 327 338 296 277 287 283 281 282 280
97 26 323 328 10 58 124 199 117 130 215 180 290 278 196 242 278 192 172 215 222 188 197 248 212 87 195 183 259 266 242 220 238 281 289 251 253 287 266 219 206 212 199 187 209 135 151 242 208 213 234 242 252 260 249 110 159 217 223 205 203 197 190 188 179 197 217 257 267 240 233 258 271 282 305 308 329 328 306 312 312 293 278 275 269 269 275 275
106 174 180 290 338 7 341 337 80 125 216 179 215 273 214 234 298 334 182 224 242 201 225 228 168 181 213 187 213 259 244 215 230 259 265 251 246 291 292 232 226 218 157 165 235 131 126 265 228 221 240 245 252 262 272 356 252 242 232 223 220 215 203 201 218 232 219 87 272 259 248 254 270 280 287 292 332 318 297 296 290 281 275 273 276 289 294 294
109 184 165 145 242 224 287 304 189 165 229 200 193 247 242 240 256 236 226 268 329 219 221 258 211 213 215 180 169 252 257 210 225 238 266 266 244 305 314 242 220 196 153 173 265 143 168 260 221 208 246 255 259 268 273 275 272 264 256 246 240 236 223 217 231 240 229 208 251 264 271 269 269 282 294 304 340 312 298 300 292 284 291 301 318 323 312 304
93 64 305 48 124 198 205 243 131 152 241 226 209 237 220 222 242 242 200 90 318 251 192 241 248 225 217 199 183 232 236 219 259 257 238 237 223 209 295 261 240 171 158 188 259 152 158 263 233 195 250 267 265 262 264 265 266 265 260 249 245 247 242 235 242 247 240 236 250 264 275 275 277 297 309 311 316 308 310 322 324 325 328 331 332 319 308 304
96 148 248 32 24 198 186 29 86 101 259 219 222 249 218 210 240 257 180 156 249 273 164 220 253 228 207 211 202 229 231 219 254 263 214 204 253 211 219 238 184 113 186 184 219 236 187 241 245 148 255 278 271 245 250 251 251 261 266 255 247 252 254 250 248 251 249 247 255 262 268 275 291 326 334 325 329 340 348 345 343 345 334 326 325 320 320 324
119 166 140 94 341 259 127 40 115 117 302 244 219 244 249 236 231 237 247 207 210 216 180 212 256 259 194 210 214 237 246 237 253 260 222 214 251 226 217 225 147 139 200 191 175 217 202 232 336 90 253 278 281 92 288 282 264 264 265 256 248 246 248 249 246 249 247 246 258 270 274 283 316 351 356 355 358 356 350 345 344 336 323 327 339 342 345 346
92 64 95 108 258 258 147 131 72 112 246 220 203 223 247 253 239 224 315 273 230 231 208 202 236 279 238 237 235 244 258 257 258 263 242 233 250 239 229 227 180 162 179 184 181 191 179 196 262 129 228 270 285 43 358 336 308 281 264 242 241 239 243 252 266 301 279 252 260 278 295 317 345 358 357 357 355 347 344 343 330 319 328 351 3 2 357 348
Height
815 815 814 814 814 814 814 814 814 814 814 814 814 815 815 815 815 815 815 815 816 816 816 816 816 816 816 817 818 818 818 818 819 818 818 818 817 817 816 814 813 813 813 812 812 812 812 813 812 813 814 814 814 813 812 812 812 817 824 830 833 830 827 827 827 827 824 823 828 830 828 828 830 831 832 833 835 837 840 841 840 841 842 842 841 840 841 845
815 814 814 814 814 814 814 813 813 813 814 814 814 814 814 815 815 815 815 815 815 815 815 815 815 816 816 817 818 818 818 818 818 818 818 818 817 816 815 814 813 812 812 811 811 811 812 812 811 812 813 813 812 810 811 810 810 816 823 828 830 825 824 826 825 824 823 823 826 828 827 826 826 829 830 832 836 839 840 841 841 842 844 843 843 843 843 845
815 815 814 814 813 813 813 813 813 813 813 813 813 813 813 813 814 814 815 815 815 815 815 815 816 816 817 817 818 818 818 817 818 818 817 816 815 815 814 813 812 811 811 811 811 811 812 811 811 812 812 813 810 809 810 809 810 812 818 825 825 822 824 826 824 823 823 822 824 826 825 826 826 827 829 830 836 838 835 836 839 840 842 844 844 844 844 846
815 814 814 813 813 812 812 812 812 812 812 812 812 812 812 812 813 813 814 815 815 815 815 816 816 816 817 817 818 818 817 818 819 818 816 816 815 814 813 812 811 811 810 810 810 810 811 810 810 810 812 814 810 808 810 810 810 810 815 822 821 821 823 825 825 824 823 822 822 823 823 825 826 827 827 828 833 835 830 828 829 830 835 841 843 843 844 845
814 814 813 812 812 812 812 811 811 811 811 810 810 811 811 811 812 812 813 814 814 815 815 816 816 816 817 817 818 818 818 822 821 818 817 816 815 814 813 812 811 810 809 810 810 809 810 809 809 809 810 812 810 810 810 807 807 812 818 821 820 820 821 825 825 824 824 821 821 821 822 823 825 826 826 826 826 824 823 823 823 824 829 835 838 841 843 844
814 814 813 812 811 811 811 810 810 809 809 809 809 809 809 810 811 811 812 813 814 814 815 816 816 816 817 817 818 818 820 824 821 817 818 816 815 814 812 812 810 810 809 809 809 809 809 808 809 810 810 810 810 811 810 806 805 812 820 822 822 820 820 825 825 825 825 821 820 821 821 822 824 824 824 823 820 818 820 821 821 821 825 830 834 838 840 841
815 814 813 812 811 810 809 809 809 808 808 807 807 808 808 809 810 811 811 812 813 814 815 815 816 816 817 818 818 819 821 822 818 817 817 815 814 813 811 811 810 810 809 809 809 808 808 808 809 810 810 811 810 809 810 808 806 810 818 821 822 822 822 825 825 825 825 822 822 822 822 822 822 823 823 821 818 819 821 820 818 819 824 829 832 835 836 837
814 814 813 811 810 809 808 807 807 807 806 806 806 807 808 808 809 810 811 812 813 814 815 815 816 816 817 818 819 821 821 819 817 817 816 815 814 812 811 810 809 810 809 809 808 808 808 808 808 808 811 812 809 809 811 810 811 813 817 821 822 823 824 825 825 824 824 823 823 823 822 822 822 823 823 819 817 820 821 820 819 821 825 828 830 832 834 836
814 813 812 811 809 808 807 806 805 805 805 805 805 806 807 807 808 809 810 812 812 813 814 814 815 815 817 817 819 822 821 817 817 816 815 814 813 812 811 810 809 809 808 808 807 807 808 808 808 808 810 811 809 811 812 813 816 817 818 821 821 823 824 824 824 824 824 823 823 823 822 823 823 824 819 813 816 821 820 821 821 823 826 828 829 830 832 833
813 812 811 810 809 808 807 806 805 804 804 805 805 806 806 807 808 809 810 811 812 813 813 814 815 815 817 817 820 823 819 816 817 815 815 814 813 812 811 810 810 809 808 807 806 806 807 808 808 807 808 809 811 814 815 815 817 818 819 821 821 823 823 824 824 824 823 823 823 823 823 822 823 824 816 809 815 820 820 822 822 823 825 826 828 829 830 831
812 811 810 809 808 808 807 805 804 804 804 804 805 806 806 807 808 809 810 811 812 813 813 814 815 816 817 817 821 823 818 816 816 815 815 814 812 812 811 811 810 809 808 807 806 806 806 807 806 806 808 810 812 816 817 816 816 818 819 821 822 823 823 823 823 824 824 823 822 823 824 822 825 824 812 809 817 819 819 821 822 823 824 825 826 827 828 829
811 811 810 809 808 808 807 805 804 804 804 805 806 806 807 808 809 810 811 812 812 813 814 815 815 816 817 818 820 819 816 816 816 815 814 813 812 812 811 811 810 809 808 807 807 806 806 806 805 807 809 809 814 818 817 816 817 818 820 821 822 825 825 822 822 823 823 823 821 823 823 820 822 817 807 811 819 818 819 821 822 823 823 824 825 825 826 826
811 811 810 809 809 808 807 806 806 805 805 806 806 807 808 809 810 811 811 812 813 814 814 815 816 816 817 819 819 817 816 816 815 815 814 813 812 811 811 811 810 809 808 807 807 806 806 805 804 807 809 810 816 818 816 816 817 819 821 821 824 827 823 819 821 822 823 823 820 823 821 813 812 810 808 815 818 818 820 820 821 822 822 823 823 824 824 824
811 811 810 809 809 809 808 808 807 807 807 807 808 808 809 810 811 811 812 813 813 814 815 815 816 816 817 819 817 816 816 816 815 814 813 813 812 811 811 811 810 810 809 808 807 806 806 805 804 807 810 813 815 816 818 819 819 820 821 822 825 826 821 819 822 822 823 823 820 824 823 813 806 805 812 817 816 816 816 818 820 821 821 821 821 821 821 821
811 811 811 810 810 809 809 809 809 809 809 809 809 810 810 811 812 812 813 814 814 815 815 815 815 816 818 818 817 816 816 815 815 814 813 813 812 811 811 810 810 809 809 808 807 807 806 806 806 809 814 816 816 817 820 822 822 822 823 823 825 825 823 821 821 821 821 821 822 823 821 815 806 803 811 816 815 814 813 815 818 817 818 818 818 818 818 817
811 811 811 811 811 810 810 810 810 811 810 810 810 811 811 812 813 813 814 814 815 815 815 815 815 815 819 819 816 816 816 815 815 814 814 813 813 812 811 810 809 808 809 808 807 807 806 806 809 813 815 817 818 819 822 826 825 824 825 824 823 823 824 822 820 820 819 820 822 821 818 813 805 803 811 814 814 814 812 812 814 814 815 815 815 815 815 816
811 811 811 811 811 811 811 811 812 812 812 811 811 812 812 813 813 813 814 814 815 815 815 815 814 814 818 818 816 817 816 816 815 814 814 813 812 812 811 810 809 808 808 807 807 807 807 809 812 814 815 818 819 820 825 829 827 825 826 825 823 822 824 822 819 818 819 820 820 821 821 813 804 803 809 811 812 813 811 809 809 810 811 811 811 812 812 813
811 811 811 811 811 812 812 812 813 812 812 812 813 813 813 814 814 814 814 814 815 815 815 815 814 818 821 818 818 818 816 816 815 815 814 813 812 811 811 810 809 808 809 809 808 808 808 811 815 816 818 820 821 822 826 828 827 827 827 827 825 822 822 821 819 818 819 821 820 820 820 812 804 804 805 806 809 809 805 804 804 805 806 806 807 808 808 809
811 811 811 811 812 812 812 813 813 813 813 813 814 814 814 814 814 814 814 814 816 818 819 819 818 822 823 819 818 817 815 815 815 815 814 812 811 810 810 810 809 810 812 812 811 809 810 814 817 819 821 825 826 825 825 825 826 827 827 828 827 825 823 820 819 820 821 822 821 820 817 808 803 801 799 800 804 805 801 800 802 801 801 803 803 804 804 804
811 811 811 811 812 812 813 813 813 814 814 814 814 815 815 816 817 817 817 817 819 821 821 821 820 821 820 819 818 816 815 815 815 815 813 811 810 809 809 809 811 812 814 815 814 811 813 818 822 823 826 828 828 826 825 824 825 825 826 827 826 828 824 819 820 822 823 822 816 815 814 807 802 798 794 795 797 799 799 798 798 798 797 797 798 799 798 797
810 811 811 811 812 812 813 813 814 814 814 815 815 815 816 817 819 820 820 821 821 820 820 819 819 819 819 819 818 817 816 815 814 814 813 811 810 810 810 810 813 815 814 815 814 813 815 819 825 828 828 828 827 826 825 824 824 824 825 825 825 827 822 817 820 821 824 823 813 813 813 803 799 794 788 790 791 789 791 793 792 792 793 792 792 793 793 791
810 810 810 811 811 812 812 813 814 814 815 815 814 815 815 815 816 817 818 821 821 819 819 819 818 819 819 818 818 818 818 818 816 814 813 811 809 812 813 812 814 816 815 815 815 818 820 822 827 829 828 827 826 825 824 824 824 823 825 826 825 824 820 817 820 822 825 824 812 810 812 801 793 791 785 786 787 780 780 783 782 783 787 788 787 787 787 787
809 809 810 811 811 812 812 813 814 814 815 815 814 814 814 814 815 815 816 820 822 820 820 819 819 820 819 818 818 817 818 820 819 817 815 813 812 815 816 815 815 815 816 817 818 822 823 824 828 829 828 828 826 824 823 823 824 824 825 826 824 823 822 818 819 823 824 821 814 811 815 806 793 788 780 777 781 777 773 775 776 779 780 779 779 778 780 782
809 809 809 810 811 812 813 814 814 815 815 815 814 814 814 815 815 816 816 819 821 821 820 820 820 820 820 819 818 818 819 821 821 819 818 816 816 816 817 818 817 817 820 821 821 822 823 827 830 829 828 828 826 824 825 825 825 824 826 825 822 823 826 823 824 826 819 816 816 814 813 802 789 785 774 767 774 772 769 772 773 775 775 772 774 774 775 777
808 808 809 810 811 812 813 814 814 815 815 815 814 814 815 815 815 815 816 821 823 822 821 820 819 820 820 819 819 819 820 821 820 820 818 818 818 817 818 819 818 820 823 823 823 823 824 829 830 828 828 827 826 826 826 826 826 826 826 829 828 827 828 827 829 828 819 814 814 815 814 798 782 782 777 769 771 768 766 769 767 768 771 772 773 772 772 773
808 808 808 809 810 812 814 814 814 815 815 815 814 815 815 815 816 814 816 827 829 823 823 822 821 821 819 819 819 819 821 821 820 820 819 819 819 818 819 819 820 822 823 823 825 825 827 830 831 830 829 827 827 828 827 828 829 827 828 833 834 831 828 828 830 830 823 816 813 816 822 812 790 780 777 772 772 768 765 765 762 764 768 769 769 767 768 769
807 807 807 808 810 811 813 814 814 814 815 815 814 815 815 815 816 813 820 835 833 823 823 823 822 821 819 819 818 819 822 821 819 819 819 819 819 818 820 821 821 822 824 824 823 825 828 829 830 831 829 828 827 826 827 829 827 824 829 835 832 828 829 830 833 834 830 824 820 818 821 822 805 781 773 774 771 765 763 761 760 761 764 765 765 764 764 765
806 807 807 808 810 811 813 813 813 814 814 814 814 815 815 815 815 814 825 838 830 821 823 822 820 820 818 818 818 820 821 820 821 820 818 819 819 819 820 822 822 823 825 824 821 825 830 828 828 829 828 829 827 826 829 829 824 824 833 837 832 832 834 835 837 835 836 832 821 816 817 819 806 780 771 775 769 762 759 757 757 757 759 761 760 760 760 761
806 806 806 808 809 811 812 813 813 814 813 814 814 814 815 815 815 818 831 836 825 820 822 821 820 820 820 819 819 820 821 821 822 820 818 819 819 819 821 823 824 824 825 826 823 825 830 830 831 830 827 826 826 830 833 829 825 829 836 834 832 837 837 837 838 833 838 833 815 811 815 813 798 775 769 772 765 760 755 753 755 754 754 755 755 756 756 757
806 806 807 808 809 811 812 813 813 813 813 814 814 814 815 815 818 829 838 831 822 822 822 820 822 822 822 822 822 822 822 822 822 820 820 820 820 820 823 824 824 824 826 828 826 828 833 835 835 832 827 826 829 833 835 833 832 833 833 829 826 831 836 837 838 835 835 825 810 810 812 810 800 774 763 764 757 752 750 750 753 751 750 750 750 752 753 753
807 807 808 809 810 811 812 813 812 813 814 813 814 815 815 819 827 837 837 825 821 824 822 822 826 825 825 827 825 823 823 823 823 822 821 821 822 821 822 823 823 824 825 825 826 831 835 833 831 830 829 829 830 832 835 837 837 832 830 830 822 821 829 831 833 835 828 811 805 812 810 809 804 775 755 754 751 750 749 747 747 746 747 747 746 748 750 751
808 809 809 810 811 811 812 812 812 813 813 813 815 815 819 828 833 832 827 820 821 825 824 826 827 826 829 830 827 827 827 825 824 824 824 823 823 823 824 823 822 821 819 820 822 824 827 830 831 830 830 831 827 827 832 835 837 833 830 831 823 817 819 817 820 825 818 808 809 812 805 802 796 772 755 752 749 750 750 746 745 745 745 745 744 744 745 749
810 810 810 811 811 811 812 812 812 812 812 813 815 816 824 834 832 827 824 820 822 827 828 830 828 829 831 827 826 830 829 825 825 826 826 826 823 824 827 828 826 821 817 820 821 816 816 825 832 829 824 828 825 819 819 824 833 833 826 823 820 819 819 813 814 814 807 807 813 812 805 798 785 762 748 746 743 743 745 745 744 744 743 741 741 742 742 745
810 811 811 811 811 811 812 812 812 812 813 814 816 821 830 832 828 828 826 823 827 830 830 832 830 829 830 826 827 830 826 823 825 826 825 826 823 821 824 827 828 825 822 822 821 818 813 809 817 821 818 823 824 819 816 818 827 828 823 822 818 817 817 811 809 808 803 806 813 814 806 791 772 750 738 738 738 738 740 741 741 741 741 739 738 741 741 742
812 812 811 811 811 811 811 812 812 812 813 815 819 828 833 829 824 825 825 826 830 829 831 835 833 827 825 827 830 832 828 823 825 826 824 823 819 815 816 819 824 825 822 818 817 821 816 803 812 824 823 824 824 822 823 820 820 823 822 822 818 814 813 812 812 812 813 815 812 809 798 780 763 745 737 740 737 737 739 738 738 737 737 739 739 739 740 741
813 813 812 812 812 811 812 812 812 813 814 816 824 831 831 826 824 824 826 830 830 829 830 830 830 825 820 823 827 830 832 828 825 824 822 821 816 813 813 816 822 822 818 814 814 818 812 804 818 828 823 826 826 823 825 819 814 819 820 816 817 817 813 812 817 819 822 820 807 797 786 775 765 745 734 737 733 731 736 736 735 733 734 737 737 736 739 740
814 814 813 813 813 812 812 812 813 814 814 818 826 830 826 824 828 830 831 833 831 831 829 823 823 822 818 819 821 826 832 829 825 822 819 817 811 808 812 817 822 822 818 818 814 815 813 806 817 825 818 823 830 826 825 824 818 816 817 815 815 819 816 815 821 821 822 820 807 793 781 771 768 750 732 733 731 728 731 733 734 735 736 736 734 735 737 739
814 814 814 814 813 812 813 813 814 813 815 822 827 827 825 826 832 835 835 835 832 831 830 823 820 821 820 819 817 824 830 823 821 822 817 812 806 804 808 813 822 825 824 823 815 814 818 807 811 827 823 823 831 826 817 822 825 818 818 821 817 814 814 816 820 816 815 817 803 789 785 775 764 748 733 730 729 729 731 732 733 733 733 733 732 733 735 738
814 815 815 814 813 813 813 813 814 814 818 826 826 825 826 828 834 839 838 837 834 829 827 824 823 822 822 821 818 822 827 821 820 821 814 808 804 803 805 808 817 825 826 825 817 814 818 810 807 823 829 824 826 823 810 811 826 828 824 824 819 815 815 813 816 814 811 811 799 787 785 770 749 738 732 726 725 729 732 730 729 728 728 730 730 731 733 735
814 816 815 813 813 813 813 813 814 817 823 828 826 825 828 829 834 841 840 837 834 830 827 825 825 823 821 822 820 820 823 822 821 819 812 808 803 800 804 806 813 824 829 827 822 817 819 815 807 817 831 824 812 809 800 794 809 822 825 824 819 817 817 814 815 813 807 805 803 795 775 745 732 732 726 722 723 728 730 727 725 725 727 729 731 731 732 732
814 816 815 813 813 813 813 814 818 822 825 826 825 826 829 830 833 839 840 839 836 832 832 829 826 824 821 821 820 819 821 821 821 819 811 808 803 796 801 806 810 820 825 824 822 817 814 815 809 809 818 809 792 794 798 792 794 801 806 808 808 810 812 812 810 806 805 800 794 792 763 722 718 728 722 721 725 725 726 726 724 725 726 729 731 731 732 732
814 816 815 813 813 813 814 818 824 826 823 824 827 829 831 832 834 837 838 839 837 834 835 833 829 827 823 821 819 819 819 817 818 817 809 805 801 795 800 807 810 814 815 814 818 816 812 816 815 806 799 792 787 795 802 799 797 797 796 795 801 806 802 798 794 792 801 799 789 796 776 723 709 722 719 719 724 722 725 727 727 727 726 728 729 730 733 733
815 815 814 813 814 813 816 822 826 825 823 829 833 832 833 833 833 835 836 836 834 833 834 832 828 825 822 821 821 820 819 815 810 810 806 802 799 799 804 808 810 812 810 809 814 816 813 813 812 804 792 785 789 800 806 804 800 797 793 795 799 797 788 787 788 788 794 791 782 792 776 726 711 724 721 720 724 723 726 728 727 725 725 728 730 730 732 733
815 815 814 814 813 814 818 823 824 822 824 831 832 830 832 833 832 832 832 832 832 831 830 828 825 822 822 824 822 819 818 812 803 803 803 799 799 805 810 809 808 808 805 805 806 807 806 806 807 804 793 782 781 789 793 797 800 793 785 790 792 789 789 793 795 798 795 779 772 781 764 724 718 729 724 722 726 724 725 729 730 729 728 730 732 731 732 732
814 816 815 814 814 815 819 821 822 822 824 826 826 825 826 828 830 830 828 829 830 829 826 824 825 824 824 825 823 820 819 813 806 805 804 801 801 809 812 810 809 806 804 807 808 804 802 803 801 797 793 785 775 768 765 773 790 790 781 783 786 786 791 789 790 799 793 772 768 777 761 726 714 723 725 725 728 727 727 731 732 732 731 731 731 731 731 731
815 817 818 817 816 816 819 822 821 821 823 824 823 823 823 823 826 829 830 828 827 827 825 824 826 825 825 826 823 819 818 816 813 809 805 800 799 806 812 811 810 810 808 810 810 807 807 806 798 788 783 777 764 756 758 765 775 777 774 778 781 783 787 785 787 788 777 769 765 757 749 734 719 722 729 730 731 733 733 734 734 733 732 732 732 732 732 732
815 817 819 819 818 818 820 822 821 821 823 823 821 821 822 821 822 826 828 827 826 827 825 824 825 822 819 823 821 816 815 817 817 812 806 802 801 807 813 813 812 811 811 812 810 808 808 804 799 793 783 770 761 759 764 770 770 768 770 774 778 782 786 786 782 767 760 770 759 731 730 738 728 724 730 732 736 738 737 737 736 735 735 734 733 733 732 731
816 818 820 820 819 819 820 821 822 822 823 824 822 820 819 819 820 819 821 827 831 828 822 820 821 818 815 816 816 812 811 814 813 807 802 801 803 806 809 812 815 813 812 813 812 810 808 800 795 797 787 774 772 774 775 778 777 773 773 775 776 777 779 780 774 761 760 768 748 721 724 731 725 725 730 733 738 739 736 736 735 734 734 732 732 732 730 729
818 819 822 822 820 821 823 824 824 823 822 824 823 821 819 817 816 814 817 824 826 826 824 815 810 814 818 818 816 811 807 804 799 797 798 799 801 802 799 799 809 817 815 814 813 812 809 800 794 797 792 779 777 780 780 782 781 775 773 775 774 770 769 771 767 758 759 760 743 732 735 729 723 731 735 735 737 737 735 735 734 734 733 732 732 732 730 730
817 816 819 822 821 823 826 826 825 822 824 826 822 819 819 816 812 813 817 817 812 817 827 816 804 811 818 819 818 810 801 797 791 790 795 796 797 800 794 788 798 816 820 816 815 813 808 801 795 798 796 780 771 775 779 782 783 777 773 774 772 768 766 765 760 754 757 759 749 746 748 739 733 740 743 740 740 740 739 738 737 737 736 735 735 734 733 734
816 815 817 818 819 823 825 824 825 822 822 824 821 817 817 814 812 812 812 809 804 808 816 810 803 810 815 816 817 808 799 798 795 793 796 796 793 793 791 786 790 805 817 817 813 809 808 805 797 798 797 778 766 774 779 779 779 776 773 771 766 765 763 757 752 751 754 755 752 753 757 752 748 750 750 747 747 747 746 744 741 740 738 737 738 738 738 738
816 816 816 817 818 822 823 822 824 822 818 818 818 815 813 811 812 813 810 807 805 806 810 807 806 811 810 807 808 803 801 803 800 797 798 797 795 791 790 789 786 790 804 814 811 806 806 804 795 796 793 776 770 779 779 776 773 762 753 752 750 752 753 748 748 753 754 753 755 759 761 759 758 759 755 753 753 751 749 748 744 742 741 742 744 744 743 741